Overview Statistics Trail Chart Weather Telemetry Raw packets
 

This is the latest recevied weather packets stored in our database for station/object KG4QXF. If no packets are shown the sender has not sent any weather packets the latest 10 day(s).

<< 53 54 55 56 57 58 59 >>
Time Temp. Humidity Pressure Rain* Wind** Luminosity Snow
1777321051 17.78° C 69% 1023.5 hPa 0 mm - - -
1777320750 17.78° C 70% 1023.5 hPa 0 mm - - -
1777320446 17.22° C 72% 1023.5 hPa 0 mm - - -
1777320143 17.78° C 69% 1023.4 hPa 0 mm - - -
1777319840 17.22° C 71% 1023.4 hPa 0 mm - - -
1777319537 16.67° C 72% 1023.8 hPa 0 mm - - -
1777319234 16.67° C 72% 1023.5 hPa 0 mm - - -
1777318931 16.67° C 74% 1023.7 hPa 0 mm - - -
1777318628 16.11° C 73% 1023.6 hPa 0 mm - - -
1777318324 16.11° C 73% 1023.7 hPa 0 mm - - -
1777318021 16.11° C 74% 1023.7 hPa 0 mm - - -
1777317718 16.11° C 74% 1023.7 hPa 0 mm - - -
1777317415 16.11° C 74% 1023.7 hPa 0 mm - - -
1777317111 16.11° C 73% 1023.9 hPa 0 mm - - -
1777316808 16.11° C 75% 1023.8 hPa 0 mm - - -
1777316505 15.56° C 75% 1023.9 hPa 0 mm - - -
1777316201 15.56° C 75% 1023.9 hPa 0 mm - - -
1777315899 16.11° C 74% 1023.7 hPa 0 mm - - -
1777315598 15.56° C 75% 1024 hPa 0 mm - - -
1777315295 16.11° C 74% 1024.1 hPa 0 mm - - -
1777314992 15.56° C 75% 1024 hPa 0 mm - - -
1777314687 16.11° C 74% 1024 hPa 0 mm - - -
1777314385 16.11° C 74% 1024 hPa 0 mm - - -
1777314082 15.56° C 75% 1024.1 hPa 0 mm - - -
1777313780 15.56° C 74% 1024.1 hPa 0 mm - - -

* Rain latest hour (hover to see other rain measurements)
** Current wind speed in m/s (hover to see current wind gust speed)